Flag for Argentina Weather past 2 weeks in Buenos Aires, Argentina

Now
50 °F

Broken clouds.


Feels Like: 45 °F
Forecast: 48 / 55 °F
Wind: 13 mph from Southeast

Location: Buenos Aires Airport

Current Time: Jul 1, 2015 at 9:06:27 AM

Latest Report: Jul 1, 2015 at 8:00 AM


Visibility: 5 mi

Pressure: 30.18 "Hg

Humidity: 88%

Dew point: 46 °F

Location of Buenos AiresLocation

Historic Weather in Buenos Aires — Graph

°F

Buenos Aires temperature yesterday

Maximum temperature yesterday: 64 °F (at 2:00 PM)
Minimum temperature yesterday: 55 °F (at 5:00 AM)
Average temperature yesterday: 59 °F

Past Weeks' High & Low Weather Summary

 TemperatureHumidityPressure
High68 °F (Jun 16, 2:00 PM)100% (Jun 27, 8:00 PM)30.51 "Hg (Jun 27, 8:00 PM)
Low39 °F (Jun 18, 8:00 AM)33% (Jun 16, 2:00 PM)29.77 "Hg (Jun 29, 4:00 PM)
Average54 °F71%30.16 "Hg
* Reported Jun 16 8:00 AM — Jul 1 8:00 AM, Buenos Aires, Weather by CustomWeather, © 2015

Note: Actual official high and low records may vary slightly from our data, if they occured in-between our weather recording intervals... More about our weather records

Advertising

Buenos Aires weather history for previous 24 hours

 ConditionsComfort  
Time TempWeatherWind HumidityBarometerVisibility
8:00 AM
Wed, Jul 1
50 °FBroken clouds.13 mph88%30.18 "Hg5 mi
7:00 AM50 °FPartly cloudy.14 mph88%30.18 "HgN/A
6:00 AM50 °FPassing clouds.14 mph88%30.15 "HgN/A
5:00 AM54 °FClear.12 mph77%30.15 "Hg10 mi
4:00 AM52 °FClear.7 mph82%30.12 "Hg10 mi
3:00 AM52 °FClear.6 mph77%30.12 "Hg10 mi
2:00 AM54 °FClear.7 mph72%30.12 "Hg10 mi
1:00 AM54 °FClear.8 mph72%30.09 "Hg10 mi
12:00 AM55 °FClear.8 mph67%30.09 "Hg10 mi
11:00 PM
Tue, Jun 30
57 °FClear.6 mph63%30.09 "Hg10 mi
10:00 PM57 °FClear.8 mph63%30.07 "Hg10 mi
9:00 PM57 °FClear.7 mph59%30.04 "Hg10 mi
8:00 PM59 °FClear.9 mph55%30.01 "Hg10 mi
7:00 PM61 °FClear.8 mph52%29.98 "Hg10 mi
6:00 PM63 °FClear.9 mph49%29.95 "Hg10 mi
5:00 PM64 °FClear.10 mph43%29.95 "Hg10 mi
4:00 PM64 °FSunny.8 mph46%29.92 "Hg10 mi
3:00 PM64 °FSunny.12 mph49%29.92 "Hg10 mi
2:00 PM64 °FSunny.8 mph52%29.89 "Hg10 mi
1:00 PM63 °FSunny.13 mph52%29.92 "Hg10 mi
12:00 PMN/ASunny.8 mphN/AN/A10 mi
11:00 AM59 °FSunny.8 mph59%29.92 "Hg10 mi
10:00 AM57 °FSunny.8 mph67%29.89 "Hg10 mi
9:00 AM55 °FSunny.5 mph72%29.86 "Hg10 mi
Weather by CustomWeather, © 2015

See weather overviewHow to use our weather pages